| time (UTC) | temp F | wind direction | speed MPH | gust MPH | rain 1hr in | rain 24hr in | rain mn in | humidity % | barometer mb |
| 20260505031536 | 59 | 72 | 0.0 | 3.0 | 0.00 | 0.00 | 0.00 | 58 | 1008.3 |
| 20260505030046 | 59 | 140 | 0.0 | 4.0 | 0.00 | 0.00 | 0.00 | 57 | 1008.4 |
| 20260505024535 | 59 | 290 | 1.0 | 5.0 | 0.00 | 0.00 | 0.00 | 56 | 1008.4 |
| 20260505023035 | 60 | 220 | 1.0 | 4.0 | 0.00 | 0.00 | 0.00 | 55 | 1008.3 |
| 20260505021535 | 60 | 205 | 0.0 | 8.0 | 0.00 | 0.00 | 0.00 | 54 | 1008.3 |
| 20260505020039 | 61 | 271 | 1.0 | 5.0 | 0.00 | 0.00 | 0.00 | 53 | 1008.3 |
| 20260505014553 | 61 | 237 | 3.0 | 10.0 | 0.00 | 0.00 | 0.00 | 53 | 1008.1 |
| 20260505013039 | 62 | 124 | 2.0 | 6.0 | 0.00 | 0.00 | 0.00 | 52 | 1008.0 |
| 20260505011539 | 63 | 159 | 0.0 | 7.0 | 0.00 | 0.00 | 0.00 | 51 | 1007.6 |
| 20260505010034 | 63 | 201 | 0.0 | 6.0 | 0.00 | 0.00 | 0.00 | 49 | 1007.3 |
| 20260505004543 | 64 | 193 | 2.0 | 11.0 | 0.00 | 0.00 | 0.00 | 48 | 1006.9 |
| 20260505003050 | 65 | 20 | 2.0 | 10.0 | 0.00 | 0.00 | 0.00 | 47 | 1006.5 |
| 20260505001530 | 65 | 333 | 3.0 | 8.0 | 0.00 | 0.00 | 0.00 | 45 | 1006.1 |
| 20260505000034 | 66 | 207 | 1.0 | 6.0 | 0.00 | 0.00 | 0.00 | 41 | 1005.7 |
| 20260504234528 | 68 | 257 | 0.0 | 4.0 | 0.00 | 0.00 | 0.00 | 38 | 1005.3 |
| 20260504233029 | 68 | 311 | 1.0 | 4.0 | 0.00 | 0.00 | 0.00 | 37 | 1005.1 |
| 20260504231527 | 69 | 268 | 2.0 | 6.0 | 0.00 | 0.00 | 0.00 | 36 | 1004.9 |
| 20260504230026 | 70 | 285 | 0.0 | 5.0 | 0.00 | 0.00 | 0.00 | 36 | 1004.7 |
| 20260504224526 | 70 | 139 | 2.0 | 9.0 | 0.00 | 0.00 | 0.00 | 35 | 1004.6 |
| 20260504223027 | 71 | 135 | 0.0 | 5.0 | 0.00 | 0.00 | 0.00 | 35 | 1004.6 |
| 20260504221524 | 72 | 41 | 0.0 | 4.0 | 0.00 | 0.00 | 0.00 | 34 | 1004.6 |
| 20260504220023 | 72 | 293 | 3.0 | 8.0 | 0.00 | 0.00 | 0.00 | 33 | 1004.5 |
| 20260504214523 | 72 | 292 | 3.0 | 12.0 | 0.00 | 0.00 | 0.00 | 33 | 1004.5 |
| 20260504213027 | 73 | 51 | 2.0 | 13.0 | 0.00 | 0.00 | 0.00 | 32 | 1004.5 |
| 20260504211533 | 73 | 224 | 2.0 | 11.0 | 0.00 | 0.00 | 0.00 | 31 | 1004.5 |
| 20260504210020 | 73 | 203 | 2.0 | 6.0 | 0.00 | 0.00 | 0.00 | 32 | 1004.4 |
| 20260504204519 | 73 | 251 | 3.0 | 9.0 | 0.00 | 0.00 | 0.00 | 32 | 1004.6 |
| 20260504203018 | 73 | 304 | 1.0 | 10.0 | 0.00 | 0.00 | 0.00 | 32 | 1004.4 |
| 20260504201517 | 72 | 138 | 4.0 | 21.0 | 0.00 | 0.00 | 0.00 | 31 | 1004.5 |
| 20260504200018 | 73 | 115 | 3.0 | 12.0 | 0.00 | 0.00 | 0.00 | 31 | 1004.6 |
| 20260504194515 | 73 | 91 | 3.0 | 11.0 | 0.00 | 0.00 | 0.00 | 30 | 1004.7 |
| 20260504193014 | 73 | 138 | 1.0 | 14.0 | 0.00 | 0.00 | 0.00 | 31 | 1004.6 |
| 20260504191512 | 73 | 248 | 3.0 | 11.0 | 0.00 | 0.00 | 0.00 | 31 | 1004.8 |
| 20260504190009 | 72 | 26 | 2.0 | 11.0 | 0.00 | 0.00 | 0.00 | 31 | 1004.8 |
| 20260504184507 | 72 | 312 | 2.0 | 12.0 | 0.00 | 0.00 | 0.00 | 31 | 1005.1 |
| 20260504183009 | 71 | 314 | 4.0 | 11.0 | 0.00 | 0.00 | 0.00 | 31 | 1005.2 |
| 20260504181505 | 71 | 101 | 4.0 | 17.0 | 0.00 | 0.00 | 0.00 | 32 | 1005.2 |
| 20260504180004 | 70 | 231 | 3.0 | 17.0 | 0.00 | 0.00 | 0.00 | 32 | 1005.2 |
| 20260504174602 | 70 | 278 | 2.0 | 11.0 | 0.00 | 0.00 | 0.00 | 33 | 1005.3 |
| 20260504173059 | 69 | 240 | 2.0 | 13.0 | 0.00 | 0.00 | 0.00 | 35 | 1005.6 |
| 20260504171557 | 68 | 222 | 5.0 | 17.0 | 0.00 | 0.00 | 0.00 | 33 | 1005.5 |
| 20260504120104 | 52 | 240 | 0.0 | 8.0 | 0.00 | 0.00 | 0.00 | 56 | 1008.7 |
| 20260504081532 | 45 | 278 | 0.0 | 2.0 | 0.00 | 0.00 | 0.00 | 63 | 1008.7 |
| 20260504050003 | 41 | 308 | 0.0 | 1.0 | 0.00 | 0.00 | 0.00 | 67 | 1008.6 |
| 20260504044600 | 40 | 283 | 0.0 | 1.0 | 0.00 | 0.00 | 0.00 | 68 | 1008.7 |
| 20260504043103 | 40 | 278 | 0.0 | 1.0 | 0.00 | 0.00 | 0.00 | 69 | 1008.5 |
| 20260504041555 | 39 | 262 | 0.0 | 1.0 | 0.00 | 0.00 | 0.00 | 70 | 1008.5 |
| 20260504040120 | 38 | 255 | 0.0 | 0.0 | 0.00 | 0.00 | 0.00 | 71 | 1008.4 |
| 20260504034549 | 39 | 255 | 0.0 | 1.0 | 0.00 | 0.00 | 0.00 | 69 | 1008.3 |
| 20260504033049 | 40 | 133 | 0.0 | 1.0 | 0.00 | 0.00 | 0.00 | 67 | 1008.2 |